Tracking 19827 objects as of 21-Aug-2019
HD Live streaming from Space Station
objects crossing your sky now

FENGYUN 1C DEB

Track FENGYUN 1C DEB now!
10-day predictions


NORAD ID: 32114
Int'l Code: 1999-025CRG
Perigee: 698.8 km
Apogee: 814.1 km
Inclination: 100.0 °
Period: 99.8 minutes
Semi major axis: 7127 km
RCS: 0.0153 m2 (small)
Launch date: May 10, 1999
Source: People's Republic of China (PRC)
Launch site: Taiyaun Space Center, China (TSC)

Note: This is SATELLITE DEBRIS
aabbcc
Your satellite tracking list
Your tracking list is empty




NASA's NSSDC Master Catalog

Two Line Element Set (TLE):
1 32114U 99025CRG 19232.90622168  .00000394  00000-0  13126-3 0  9999
2 32114  99.9577 261.5917 0080896 223.3853 136.0945 14.42797799635828
Source of the keplerian elements: AFSPC